Bardai Zougra Airport

Jump to: basic info | weather | comments

Related pages: nearby airports | nearby navaids | notams | map

Basic information (top)

Codes: FTTZ
Location: lon 21.450001, lat 17.049999, elev 3,524 ft / 1,074 m msl
Status: small_airport

Weather (top)

Current conditions for Faya Largeau Airport 242nm (448km) SSE (rec'd 2014/12/19 15:00Z):

FTTY 191500Z 04012KT CAWOK 30/M00 Q1014

Airport forecast for Kufra Airport 383nm (710km) ENE (rec'd 2014/12/19 00:00Z):

TAF HLKF 192300Z 2000/2024 36008KT CAVOK

Latest comments (top)

No comments yet for Bardai Zougra Airport

More... (top)

See also NOTAMs and nearby airports and navaids, or visit the Bardai Zougra Airport page at the main OurAirports website..